Location: Dos Palmas
(32.4468°N, 116.8732°W)
Time: 13:24:23
(UTC+00:00)

Delta 2 Rocket - Pass Details

Date: 20 June 2021
Orbit: 416 x 801 km, 35.6° (Epoch: 31 July)

Event Time Altitude Azimuth Distance (km) Brightness Sun altitude
Exits shadow 11:49:23 - 277° (W) 2,127 5.9 -10.0°
Reaches altitude 10° 11:50:18 10° 280° (W) 1,769 5.5 -9.8°
Maximum altitude 11:54:13 51° 356° (N) 617 3.8 -9.1°
Drops below altitude 10° 11:57:45 10° 74° (ENE) 1,587 7.0 -8.5°
Sets 11:59:50 0° 80° (E) 2,417 8.0 -8.2°
